RH
61 72 93 91 90 91 91 92 92 92 90 89 90 90 89 87 86 85 82 80 79 76 72 72 74 73 73 73 75 79 78 77 77 76 72 70 69 70 74 77 75 68 79
58 64 94 93 91 90 92 93 92 91 89 89 90 89 89 88 86 83 82 80 78 74 70 71 71 72 74 75 80 79 78 77 76 76 77 76 74 72 72 77 79 73 76
45 62 71 93 94 91 91 92 92 90 88 88 89 89 89 87 85 83 82 80 76 75 70 70 70 69 74 76 81 79 78 79 77 76 70 67 69 72 73 76 76 74 75
39 60 61 93 92 92 92 92 91 89 87 88 89 87 87 87 85 84 83 80 76 75 69 68 70 70 75 80 79 79 81 80 79 71 57 61 62 70 68 67 68 67 66
41 42 58 91 92 92 92 92 90 89 89 88 89 86 83 85 85 84 82 79 77 75 68 69 71 77 79 81 82 81 78 74 73 55 55 58 61 63 65 66 65 66 70
40 58 89 93 91 91 93 92 90 89 90 88 84 82 86 83 85 83 81 79 77 74 69 72 76 80 85 83 79 76 74 72 72 48 56 69 66 71 69 69 69 69 72
48 57 81 89 94 91 89 87 90 87 90 88 85 83 82 82 84 83 81 78 76 76 75 75 79 81 83 80 77 74 70 72 44 48 57 66 70 68 67 67 68 68 68
57 69 81 82 88 94 91 86 89 86 86 89 87 83 85 90 90 83 81 80 78 79 80 82 83 82 82 79 74 72 76 73 42 47 55 65 69 65 66 67 67 67 67
67 71 75 81 78 92 92 92 93 96 98 86 88 86 89 89 87 83 83 81 82 83 84 84 85 84 81 78 75 74 73 73 42 49 53 67 69 64 65 66 67 66 66
74 78 76 80 79 81 85 89 90 85 88 91 89 83 85 88 85 85 84 84 85 85 85 86 85 83 82 79 76 74 74 74 42 48 59 69 67 64 64 65 65 66 65
73 75 80 83 79 85 88 92 90 85 89 95 90 87 94 81 80 82 81 86 86 86 86 86 86 85 82 76 76 76 78 48 44 55 65 75 66 63 64 65 65 65 65
73 78 78 83 81 85 92 94 95 93 93 93 82 89 84 82 79 70 86 87 86 86 86 86 86 83 68 67 68 73 63 47 47 59 68 75 66 64 64 65 64 64 65
57 74 74 79 85 90 96 97 98 97 96 93 88 91 85 77 80 90 91 83 86 84 78 80 78 59 55 56 60 63 61 49 53 60 72 76 67 63 64 64 64 64 64
65 78 75 78 84 88 90 96 97 99 99 99 91 84 81 76 85 88 87 79 75 70 73 72 64 62 58 55 58 60 53 49 58 65 77 79 72 64 63 64 64 64 64
59 68 79 78 87 88 89 94 97 97 96 98 97 88 75 75 87 90 85 78 64 63 64 64 61 60 58 57 59 54 54 51 58 63 74 80 76 69 63 63 63 62 63
55 69 76 78 81 88 90 88 90 94 86 96 98 88 81 76 87 83 76 74 68 62 61 60 58 58 64 59 62 57 53 54 54 63 69 81 79 74 68 62 62 61 62
57 65 73 75 77 81 84 91 92 92 89 93 96 94 88 80 84 75 71 80 67 62 67 62 62 66 65 54 59 61 57 56 52 58 64 69 80 80 75 70 65 61 61
61 67 71 72 78 80 83 89 93 92 90 92 90 93 92 88 78 73 69 67 62 63 63 61 62 67 66 62 63 61 60 57 59 59 58 62 67 63 79 77 74 70 64
64 68 80 79 84 84 84 87 93 90 92 93 89 92 90 86 90 74 66 84 73 60 64 68 70 66 66 60 55 60 61 61 62 49 57 58 64 62 68 79 80 78 73
70 75 83 83 84 83 93 93 94 95 94 93 90 90 92 92 90 83 78 78 82 78 70 65 66 65 63 61 33 48 61 60 61 69 62 55 60 66 65 66 74 74 81
75 77 79 86 87 90 94 97 97 96 96 97 94 86 89 91 86 83 71 75 74 71 82 71 71 68 68 65 66 68 64 60 64 64 67 68 63 65 70 74 71 69 71
75 74 78 83 88 85 88 92 96 96 94 93 98 90 88 89 84 75 72 76 67 73 73 72 71 74 71 68 68 69 76 68 64 63 67 68 72 66 65 64 68 66 63
76 74 77 76 86 86 86 90 96 98 97 97 96 97 88 85 83 82 79 80 74 68 77 74 75 70 75 71 66 71 74 74 72 70 67 69 68 78 71 64 60 60 61
73 72 69 77 86 85 84 86 94 98 98 98 95 94 94 87 87 86 87 82 81 77 76 77 73 74 73 75 73 67 72 76 84 81 68 68 70 66 72 68 58 54 52
70 76 69 77 84 81 86 84 93 98 98 98 98 98 95 93 88 87 89 81 77 76 82 81 82 77 78 72 72 75 75 78 83 85 84 74 63 55 59 62 58 61 54
71 73 75 76 80 84 87 85 88 93 96 97 98 98 97 95 92 91 82 88 87 86 86 83 80 79 83 80 73 74 78 81 80 86 91 86 88 79 53 55 67 58 56
Wind_Speed
13 15 14 16 15 14 12 9 10 13 14 15 15 16 19 19 20 22 22 21 21 21 21 21 19 20 21 23 23 22 23 23 21 20 19 19 20 20 21 20 20 18 22
16 15 15 16 14 13 13 11 9 10 13 17 18 17 18 19 19 21 22 21 21 21 21 21 20 20 21 21 20 21 22 20 19 20 22 21 20 23 24 20 19 18 21
10 15 14 14 13 14 14 14 14 13 15 15 16 17 18 19 20 20 21 21 21 22 21 20 22 20 20 20 19 18 20 20 20 18 19 12 13 22 23 20 18 20 21
4 13 14 13 12 14 15 14 15 17 18 18 19 18 15 16 19 20 21 22 21 21 21 21 23 20 19 17 16 15 17 17 18 17 11 12 15 21 21 20 19 19 19
4 1 9 18 15 13 14 17 17 18 19 21 21 26 19 16 18 20 20 23 21 21 21 22 22 20 16 12 10 7 8 5 4 14 13 12 9 16 20 19 18 19 17
4 11 10 7 17 17 18 18 20 20 21 23 21 21 25 23 22 20 19 23 23 21 21 24 19 19 13 9 7 7 6 6 6 15 12 16 11 19 20 20 20 20 17
1 6 9 7 4 11 19 21 22 22 23 23 25 25 25 19 17 20 20 20 24 22 21 23 20 17 12 9 6 5 4 4 11 11 12 11 9 17 19 19 19 19 19
2 5 6 7 5 9 10 19 23 27 23 24 23 27 28 25 19 17 19 20 20 26 22 20 20 16 11 8 5 3 9 8 14 13 12 9 14 17 19 18 18 18 19
5 2 2 3 5 7 4 3 3 10 2 19 26 28 26 24 28 22 19 21 23 22 22 21 18 15 10 7 4 4 5 7 13 11 12 6 16 17 18 18 18 18 18
4 3 1 4 3 1 2 8 11 15 11 20 20 29 29 24 22 22 22 22 22 21 21 21 18 15 10 6 2 1 6 5 13 11 9 7 16 17 17 18 17 17 17
4 3 5 5 6 3 2 7 16 20 24 26 27 27 21 16 17 21 19 24 22 21 22 20 18 15 10 6 2 5 8 2 11 10 7 12 15 16 16 17 16 16 16
11 8 5 7 6 3 2 3 6 9 7 20 15 21 16 18 16 16 19 23 22 20 20 19 18 15 10 3 1 3 3 5 10 11 6 13 17 16 16 16 15 15 15
1 5 6 5 4 6 4 3 3 5 7 20 23 21 19 14 12 12 10 9 11 15 9 11 12 7 7 5 4 3 5 6 9 9 9 13 16 16 16 15 15 14 13
7 8 5 6 8 7 4 6 6 6 1 6 16 22 15 10 11 13 10 10 10 8 11 9 7 7 8 7 6 5 4 6 8 8 7 12 14 15 14 16 14 13 13
4 6 5 4 8 7 7 6 6 6 8 5 7 12 11 12 11 12 11 11 9 9 9 9 8 7 8 6 5 6 4 11 12 8 5 12 12 14 14 15 14 12 12
5 6 6 5 5 7 8 7 8 8 10 8 7 9 11 11 10 11 12 11 10 10 9 9 8 7 5 6 6 6 4 6 12 12 8 6 12 12 13 13 14 13 13
5 5 6 6 5 4 4 6 5 8 11 10 12 4 7 11 11 13 11 9 9 10 10 8 7 5 5 6 6 5 4 6 10 13 11 8 6 9 11 12 13 14 13
7 5 5 5 1 5 6 5 6 8 9 9 9 10 11 8 12 11 11 11 11 11 9 9 6 5 5 5 4 4 4 4 6 12 11 10 8 7 8 12 13 15 15
7 6 5 5 4 4 4 3 5 9 8 9 10 8 11 13 3 7 10 7 11 11 9 7 5 6 5 4 5 4 3 4 5 4 10 12 12 10 8 11 11 12 13
6 8 6 6 4 4 4 2 2 4 6 10 11 11 14 11 8 5 6 4 7 7 8 7 7 5 5 5 8 5 4 3 4 3 4 7 11 9 10 10 9 8 13
9 8 9 8 6 5 3 4 5 6 6 7 11 17 16 13 12 6 6 5 4 9 1 7 5 6 3 4 4 4 2 2 4 3 4 3 5 6 7 7 8 7 8
9 10 10 8 8 6 4 3 2 3 8 9 8 17 18 17 15 9 8 6 6 5 7 6 6 3 3 4 4 5 3 1 3 4 2 4 5 4 5 6 11 11 10
10 10 9 10 7 5 5 4 1 5 7 9 11 12 20 20 15 9 5 6 6 7 3 5 6 7 3 2 2 4 3 5 4 3 7 4 5 4 5 6 7 8 11
12 9 11 9 8 6 7 5 2 2 5 4 13 11 13 19 15 10 7 8 5 4 5 5 5 4 5 4 1 3 0 0 1 3 2 5 5 6 7 6 8 10 10
14 11 9 11 9 9 7 7 4 4 6 8 7 14 15 14 15 11 8 9 9 8 7 6 3 5 5 6 5 2 2 1 2 2 3 4 6 7 7 8 8 5 9
14 12 8 10 10 10 7 10 7 8 7 9 10 9 8 10 12 10 10 7 7 5 7 9 9 6 5 5 5 4 4 4 4 4 4 5 5 5 9 8 8 11 11
Wind_Direction
108 127 126 128 137 139 142 147 141 134 131 125 120 118 114 112 112 111 109 110 114 117 115 113 107 101 97 97 98 97 94 93 96 102 95 89 88 92 91 90 89 83 80
124 137 129 129 144 147 147 145 135 138 137 136 132 124 119 119 118 118 120 123 122 120 120 116 108 105 102 102 99 99 100 102 102 99 91 89 88 88 84 80 87 91 90
91 131 141 136 138 152 155 154 152 157 141 141 134 131 129 131 130 130 129 126 123 120 124 118 113 112 109 104 106 115 119 123 122 114 103 89 87 88 88 86 86 88 88
33 146 150 149 151 157 163 161 162 165 154 153 143 127 132 137 137 136 133 127 125 123 126 123 117 118 115 113 121 129 131 141 134 112 99 97 94 95 96 94 94 93 92
109 8 134 155 156 162 171 167 172 173 161 158 154 144 155 150 147 139 134 126 126 128 131 125 120 120 116 117 117 119 122 126 74 100 98 90 92 99 96 92 89 87 87
161 108 106 146 163 167 175 178 179 184 171 165 166 157 159 169 151 138 137 132 130 128 131 120 127 123 117 117 117 106 71 43 352 88 88 88 79 93 98 95 94 91 90
140 114 121 128 180 185 181 186 189 189 175 169 167 164 149 155 140 142 139 136 132 131 128 128 129 122 124 123 117 104 108 351 128 103 93 90 96 104 101 100 99 97 97
164 94 132 146 201 212 221 195 199 194 182 169 166 158 142 151 156 148 141 137 135 129 129 133 127 127 132 123 128 54 17 4 106 99 93 96 114 111 107 106 104 102 100
84 355 231 129 194 213 209 220 151 135 291 202 166 148 145 166 159 149 146 138 130 129 132 128 126 130 133 135 92 22 6 358 97 100 105 115 114 114 113 111 108 108 106
154 213 283 139 200 348 241 189 182 212 208 261 193 152 159 161 153 140 140 133 131 132 130 129 130 131 132 126 107 323 358 348 109 109 99 116 127 123 118 115 117 112 112
192 208 167 174 218 193 294 232 203 209 193 202 191 149 144 161 151 140 141 136 135 138 134 133 128 124 127 141 184 347 328 152 104 103 109 133 128 124 122 121 120 118 115
183 180 204 176 227 133 241 181 177 182 172 214 186 144 157 162 149 145 136 137 134 137 131 131 130 133 142 140 181 297 292 111 108 109 124 138 131 131 129 124 125 124 125
220 149 172 173 163 165 163 96 108 179 222 216 168 155 176 163 153 133 135 137 134 135 134 132 133 149 138 156 171 221 237 103 111 116 139 139 139 137 136 133 129 129 129
156 158 169 165 167 166 156 154 171 169 112 51 152 160 159 151 145 138 144 145 148 156 147 147 162 162 165 184 177 153 190 110 115 121 147 142 140 144 146 140 137 138 140
276 118 145 208 168 182 196 168 175 150 141 193 153 179 157 146 145 143 148 151 160 153 159 159 175 172 171 160 179 140 219 109 125 130 142 144 144 153 156 150 147 152 157
217 160 151 208 183 173 192 182 172 153 159 167 166 175 159 148 149 149 152 157 167 152 162 171 178 164 157 158 132 167 175 120 132 139 141 149 155 161 163 166 158 171 176
173 141 160 178 157 152 140 149 145 151 166 169 157 155 167 147 158 157 156 157 173 156 165 180 185 138 138 145 158 161 152 150 145 141 149 151 157 168 173 183 172 185 192
137 164 180 88 154 145 138 145 150 158 160 161 170 165 154 174 163 161 158 166 172 163 172 181 162 136 151 147 153 164 151 148 139 152 160 153 163 173 193 192 184 196 203
140 173 129 149 203 153 110 60 143 170 171 163 169 169 162 168 197 158 166 177 164 168 169 164 139 139 136 159 150 160 160 162 150 184 157 161 169 177 183 195 191 197 203
154 154 170 186 179 108 97 178 217 170 188 176 173 169 157 154 175 136 124 170 146 149 159 143 137 141 149 169 169 144 167 167 158 183 200 156 178 173 182 182 190 201 203
153 164 194 178 156 160 145 187 204 205 198 188 173 170 162 163 157 155 139 128 138 133 272 131 119 143 158 180 113 108 148 144 157 193 178 197 177 185 163 171 182 196 205
169 193 193 183 172 177 174 147 182 196 202 198 183 170 165 164 159 164 146 143 112 104 130 124 123 148 152 160 142 124 145 3 272 230 233 205 206 175 192 199 188 197 206
175 189 195 188 167 168 134 137 209 178 188 186 187 179 164 160 156 140 135 137 131 114 165 152 158 165 149 108 151 148 158 209 159 180 222 215 208 204 205 201 213 209 207
172 183 190 183 165 176 173 152 71 14 121 105 173 155 148 152 149 138 123 138 149 135 166 160 171 160 132 149 28 254 1 23 163 112 193 219 213 222 219 225 219 219 221
162 176 189 168 167 180 174 154 134 83 91 97 106 128 142 150 152 151 147 161 191 199 162 144 182 187 142 166 178 160 211 204 184 183 202 206 218 225 214 212 225 227 222
156 167 166 167 177 174 183 149 152 124 118 115 118 117 136 144 154 154 169 192 194 175 163 180 197 193 191 180 183 198 167 165 203 188 221 233 197 229 223 221 215 222 225